sat.trackr.live / text

‹ back to catalog

STARLINK-32802

NORAD 62738 · 2025-014D

PAYLOAD ACTIVE UNKNOWN

§ Identity

Operator
Country
US
Launch date
2025-01-21
Launch site
AFETR
Launch vehicle
Mass (kg)
RCS (m²)

Purposes: comms

External: N2YO · Heavens-Above · Gunter

§ Orbital elements

Epoch: 2026-09-21T00:19:44.263200Z

Period
94.27 min
Inclination
43.0018°
Eccentricity
0.0000850
Mean motion
15.27584692 rev/d
Perigee alt
482.5 km
Apogee alt
483.6 km
Semi-major
6,861.2 km
B*
3.2522e-4
RAAN
130.9569°
Arg perigee
269.2785°
Mean anomaly
90.7969°
Rev number
9,313

§ Raw data

STARLINK-328021 62738U 25014D   26264.01370675  .00008699  00000+0  32522-3 0  99952 62738  43.0018 130.9569 0000850 269.2785  90.7969 15.27584692 93134

JSON: /api/v1/satellites/62738 · /tle

For live sub-satellite position, see the globe view (requires WebGL).

§ Visibility from observer

Set your observer location to see the next 7 days of passes ≥ 10°. The values pass through the URL so the page stays shareable.

No JS? Fill the form by hand. The geolocation button needs JavaScript.